Location: Hilde
(52.9479°N, 6.4449°E)
Time: 13:08:11
(UTC+00:00)

EP 1 - Pass Details

Date: 15 May 2026
Orbit: 314 x 1668 km, 63.3° (Epoch: 25 August)

Event Time Altitude Azimuth Distance (km) Brightness Sun altitude
Rises 20:08:20 0° 313° (NW) 2,115 11.3 -5.8°
Reaches altitude 10° 20:10:18 10° 316° (NW) 1,236 9.0 -6.1°
Maximum altitude 20:12:54 74° 41° (NE) 336 4.3 -6.3°
Drops below altitude 10° 20:15:35 10° 128° (SE) 1,269 6.5 -6.6°
Enters shadow 20:15:44 - 128° (SE) 1,333 6.6 -6.6°
